User: anonymous   Login
Location: Unspecified
(0.0000°N, 0.0000°E)
Time: 00:45:41
(UTC+02:00)
Language:

IUS-9 SRM-1 - Orbit

View from above orbital plane
View from above orbital plane
View from above satellite
View from above satellite

Ground track
Ground track

The orbit data is extracted from the following two-line orbital elements,

1 19884U 89021C   17266.19314342  .00019506  00000-0  10018-2 0  9992
2 19884  26.3984 284.0916 5961701  79.8084 338.8250  4.15902744338042
Epoch (UTC): 23 September 2017 04:38:07
Eccentricity: 0.5961701
inclination: 26.3984°
perigee height: 218 km
apogee height: 19692 km
right ascension of ascending node: 284.0916°
argument of perigee: 79.8084°
revolutions per day: 4.15902744
mean anomaly at epoch: 338.8250°
orbit number at epoch: 33804

The dashed part of the orbit path shows where the satellite is in the earth's shadow,  

DLR